GW1213 Weather Reports


Display with metric or nautical units.
time (UTC)temp
F
wind
direction
speed
MPH
gust
MPH
rain 1hr
in
rain 24hr
in
rain mn
in
humidity
%
barometer
mb
20260508225034 70 247 2.0 10.0 0.00 0.00 0.00 33 1010.9
20260508224557 71 246 4.0 10.0 0.00 0.00 0.00 33 1010.8
20260508224035 71 148 3.0 9.0 0.00 0.00 0.00 32 1010.8
20260508223535 71 212 3.0 10.0 0.00 0.00 0.00 33 1010.8
20260508223053 71 0 2.0 10.0 0.00 0.00 0.00 33 1010.8
20260508222537 71 199 4.0 12.0 0.00 0.00 0.00 33 1010.8
20260508222036 71 176 2.0 13.0 0.00 0.00 0.00 32 1010.8
20260508221550 71 103 1.0 13.0 0.00 0.00 0.00 33 1010.9
20260508221037 72 172 3.0 10.0 0.00 0.00 0.00 32 1010.9
20260508220534 71 254 2.0 13.0 0.00 0.00 0.00 32 1010.9
20260508220049 72 243 3.0 13.0 0.00 0.00 0.00 32 1011.0
20260508215534 72 261 5.0 12.0 0.00 0.00 0.00 32 1010.9
20260508215037 72 0 2.0 14.0 0.00 0.00 0.00 32 1010.9
20260508214600 72 269 3.0 14.0 0.00 0.00 0.00 32 1010.9
20260508214036 72 86 2.0 9.0 0.00 0.00 0.00 31 1010.9
20260508213533 72 0 1.0 12.0 0.00 0.00 0.00 32 1010.9
20260508213048 72 142 3.0 12.0 0.00 0.00 0.00 31 1011.0
20260508212536 72 136 3.0 12.0 0.00 0.00 0.00 30 1011.2
20260508212037 73 225 4.0 9.0 0.00 0.00 0.00 30 1011.2
20260508211542 73 167 1.0 8.0 0.00 0.00 0.00 31 1011.1
20260508211036 73 258 1.0 9.0 0.00 0.00 0.00 31 1011.2
20260508210534 73 0 4.0 9.0 0.00 0.00 0.00 29 1011.1
20260508210054 73 0 1.0 8.0 0.00 0.00 0.00 30 1011.1
20260508205537 73 221 2.0 8.0 0.00 0.00 0.00 31 1011.2
20260508205038 73 238 2.0 9.0 0.00 0.00 0.00 30 1011.2
20260508204549 73 214 3.0 9.0 0.00 0.00 0.00 30 1011.2
20260508204034 73 213 4.0 9.0 0.00 0.00 0.00 30 1011.3
20260508203537 73 245 2.0 9.0 0.00 0.00 0.00 30 1011.3
20260508203046 73 206 3.0 9.0 0.00 0.00 0.00 29 1011.4
20260508202537 73 257 2.0 9.0 0.00 0.00 0.00 31 1011.4
20260508202034 72 115 3.0 8.0 0.00 0.00 0.00 33 1011.4
20260508201546 72 120 2.0 6.0 0.00 0.00 0.00 34 1011.4
20260508201038 73 234 1.0 9.0 0.00 0.00 0.00 31 1011.6
20260508200533 73 116 3.0 9.0 0.00 0.00 0.00 31 1011.7
20260508200046 73 254 2.0 7.0 0.00 0.00 0.00 30 1011.8
20260508195533 74 277 2.0 7.0 0.00 0.00 0.00 30 1011.8
20260508195034 74 275 2.0 7.0 0.00 0.00 0.00 33 1011.9
20260508194554 74 117 2.0 7.0 0.00 0.00 0.00 33 1011.9
20260508194038 73 0 1.0 8.0 0.00 0.00 0.00 33 1011.9
20260508193533 73 204 1.0 10.0 0.00 0.00 0.00 31 1012.0
20260508193101 73 278 3.0 10.0 0.00 0.00 0.00 32 1012.0
20260508192535 73 149 4.0 9.0 0.00 0.00 0.00 31 1012.2
20260508192040 73 0 3.0 8.0 0.00 0.00 0.00 32 1012.2
20260508191557 73 264 3.0 9.0 0.00 0.00 0.00 30 1012.3
20260508191035 73 206 2.0 10.0 0.00 0.00 0.00 31 1012.4
20260508190535 73 242 3.0 10.0 0.00 0.00 0.00 31 1012.4
20260508190104 73 203 4.0 8.0 0.00 0.00 0.00 32 1012.5
20260508185539 73 186 2.0 7.0 0.00 0.01 0.00 32 1012.6
20260508185034 73 202 2.0 9.0 0.00 0.01 0.00 33 1012.7
20260508184547 73 219 2.0 9.0 0.00 0.01 0.00 32 1012.8
20260508184034 72 205 1.0 7.0 0.00 0.01 0.00 33 1012.9
20260508183534 72 155 0.0 8.0 0.00 0.01 0.00 34 1012.9
20260508183101 72 0 3.0 8.0 0.00 0.01 0.00 33 1013.0
20260508182535 72 242 2.0 7.0 0.00 0.01 0.00 34 1012.9
20260508182036 72 0 0.0 4.0 0.00 0.01 0.00 33 1012.9
20260508181552 71 290 1.0 11.0 0.00 0.01 0.00 35 1013.0
20260508181040 71 263 3.0 11.0 0.00 0.01 0.00 33 1013.2
20260508180535 71 0 1.0 7.0 0.00 0.01 0.00 33 1013.2
20260508180100 71 187 2.0 8.0 0.00 0.01 0.00 35 1013.3
20260508175535 70 232 2.0 8.0 0.00 0.01 0.00 36 1013.3
20260508175036 69 176 3.0 8.0 0.00 0.01 0.00 34 1013.4
20260508174601 70 211 2.0 14.0 0.00 0.01 0.00 34 1013.3
20260508174034 70 248 3.0 14.0 0.00 0.01 0.00 34 1013.5
20260508173535 71 236 3.0 14.0 0.00 0.01 0.00 33 1013.5
20260508173050 70 178 1.0 7.0 0.00 0.01 0.00 36 1013.5
20260508172537 70 0 0.0 10.0 0.00 0.01 0.00 37 1013.5
20260508172039 70 0 2.0 10.0 0.00 0.01 0.00 35 1013.6
20260508171554 70 253 2.0 7.0 0.00 0.01 0.00 34 1013.8
20260508171034 70 0 2.0 6.0 0.00 0.01 0.00 34 1013.8
20260508170536 70 238 0.0 8.0 0.00 0.01 0.00 37 1013.9
20260508170049 69 0 0.0 10.0 0.00 0.01 0.00 38 1013.9
20260508165535 69 190 2.0 10.0 0.00 0.01 0.00 37 1014.1
20260508165035 69 338 0.0 8.0 0.00 0.01 0.00 37 1014.1
20260508164552 68 0 1.0 10.0 0.00 0.01 0.00 37 1014.1
20260508164035 69 169 3.0 10.0 0.00 0.01 0.00 35 1014.2
20260508163537 68 136 2.0 8.0 0.00 0.01 0.00 37 1014.5
20260508163048 68 234 1.0 6.0 0.00 0.01 0.00 39 1014.5
20260508162535 67 91 2.0 6.0 0.00 0.01 0.00 38 1014.5
20260508162036 67 171 2.0 8.0 0.00 0.01 0.00 39 1014.7
20260508161547 68 269 2.0 8.0 0.00 0.01 0.00 37 1014.9
20260508161035 68 273 1.0 9.0 0.00 0.01 0.00 37 1014.9
20260508160536 68 126 2.0 9.0 0.00 0.01 0.00 36 1014.9
20260508160046 67 70 0.0 4.0 0.00 0.01 0.00 39 1015.0
20260508155534 67 32 1.0 7.0 0.00 0.01 0.00 35 1015.0
20260508155035 67 216 1.0 8.0 0.00 0.01 0.00 37 1015.2
20260508154554 67 202 3.0 8.0 0.00 0.01 0.00 40 1015.1
20260508154038 66 157 1.0 5.0 0.00 0.01 0.00 39 1015.0
20260508153538 66 158 1.0 5.0 0.00 0.01 0.00 40 1015.2
20260508153056 66 208 2.0 9.0 0.00 0.01 0.00 40 1015.2
20260508152538 66 278 2.0 9.0 0.00 0.01 0.00 39 1015.2
20260508152038 66 171 1.0 7.0 0.00 0.01 0.00 34 1015.3
20260508151549 67 260 2.0 7.0 0.00 0.01 0.00 37 1015.3
20260508151038 66 181 0.0 3.0 0.00 0.01 0.00 35 1015.4
20260508150537 66 257 0.0 2.0 0.00 0.01 0.00 37 1015.4
20260508150050 66 0 0.0 2.0 0.00 0.01 0.00 38 1015.4
20260508145539 65 0 0.0 2.0 0.00 0.01 0.00 39 1015.5
20260508145038 65 0 0.0 5.0 0.00 0.01 0.00 41 1015.6
20260508144553 64 0 0.0 8.0 0.00 0.01 0.00 41 1015.6
20260508144038 64 0 3.0 8.0 0.00 0.01 0.00 36 1015.7
20260508143539 64 0 1.0 4.0 0.00 0.01 0.00 38 1015.8
20260508143059 64 262 0.0 3.0 0.00 0.01 0.00 39 1015.7
20260508142538 63 0 0.0 2.0 0.00 0.01 0.00 42 1015.7
20260508142038 63 0 0.0 2.0 0.00 0.01 0.00 40 1015.7
20260508141604 63 26 0.0 2.0 0.00 0.01 0.00 43 1015.7
20260508141037 63 0 0.0 2.0 0.00 0.01 0.00 43 1015.8
20260508140538 62 0 0.0 3.0 0.00 0.01 0.00 50 1015.8
20260508140056 61 61 1.0 3.0 0.00 0.01 0.00 50 1015.8
20260508135538 61 62 1.0 5.0 0.00 0.01 0.00 51 1015.9
20260508135038 60 70 1.0 5.0 0.00 0.01 0.00 54 1015.9
20260508134551 60 81 2.0 5.0 0.00 0.01 0.00 53 1015.9
20260508134037 60 76 1.0 4.0 0.00 0.01 0.00 56 1016.0
20260508133539 59 64 1.0 3.0 0.00 0.01 0.00 60 1016.0
20260508133052 59 0 0.0 0.0 0.00 0.01 0.00 61 1016.1
20260508132538 58 0 0.0 0.0 0.00 0.01 0.00 60 1016.2
20260508132038 58 0 0.0 0.0 0.00 0.01 0.00 60 1016.1
20260508131603 57 0 0.0 0.0 0.00 0.01 0.00 63 1016.2
20260508131041 57 0 0.0 0.0 0.00 0.01 0.00 65 1016.1
20260508130542 56 0 0.0 0.0 0.00 0.01 0.00 72 1016.1
20260508130054 56 0 0.0 0.0 0.00 0.01 0.00 71 1016.1
20260508125538 55 0 0.0 0.0 0.00 0.01 0.00 73 1016.1
20260508125038 55 0 0.0 0.0 0.00 0.01 0.00 74 1016.2
20260508124552 54 0 0.0 0.0 0.00 0.01 0.00 79 1016.2
20260508124038 54 0 0.0 0.0 0.00 0.01 0.00 83 1016.2
20260508123538 53 0 0.0 0.0 0.00 0.01 0.00 86 1016.1
20260508123105 52 0 0.0 0.0 0.00 0.01 0.00 86 1016.1
20260508122538 51 0 0.0 3.0 0.00 0.01 0.00 87 1016.1
20260508122040 50 0 0.0 3.0 0.00 0.01 0.00 86 1016.0
20260508121600 50 73 2.0 3.0 0.00 0.01 0.00 87 1015.7
20260508121038 50 69 0.0 0.0 0.00 0.01 0.00 87 1015.8
20260508120538 50 0 0.0 0.0 0.00 0.01 0.00 87 1015.8
20260508120106 50 0 0.0 0.0 0.00 0.01 0.00 88 1015.9
20260508115538 50 0 0.0 0.0 0.00 0.01 0.00 89 1015.8
20260508115036 50 0 0.0 0.0 0.00 0.01 0.00 89 1015.7
20260508114559 49 0 0.0 0.0 0.00 0.01 0.00 92 1015.7
20260508114038 48 0 0.0 0.0 0.00 0.01 0.00 95 1015.7
20260508113538 47 0 0.0 0.0 0.00 0.01 0.00 95 1015.7
20260508113103 47 0 0.0 0.0 0.00 0.01 0.00 95 1015.7
20260508112537 46 0 0.0 0.0 0.00 0.01 0.00 96 1015.6
20260508112037 46 0 0.0 0.0 0.00 0.01 0.00 97 1015.6
20260508111550 45 0 0.0 0.0 0.00 0.01 0.00 97 1015.4
20260508111039 44 0 0.0 0.0 0.00 0.01 0.00 97 1015.4
20260508110538 44 0 0.0 0.0 0.00 0.01 0.00 97 1015.2
20260508110051 43 0 0.0 0.0 0.00 0.01 0.00 97 1015.1
20260508105538 43 0 0.0 0.0 0.00 0.01 0.00 97 1015.0
20260508105039 42 0 0.0 0.0 0.00 0.01 0.00 96 1015.0
20260508104548 41 0 0.0 0.0 0.00 0.01 0.00 95 1014.9
20260508104038 41 0 0.0 0.0 0.00 0.01 0.00 94 1014.7
20260508103538 42 0 0.0 0.0 0.00 0.01 0.00 94 1014.6
20260508103059 42 0 0.0 0.0 0.00 0.01 0.00 94 1014.5
20260508102538 42 0 0.0 0.0 0.00 0.01 0.00 94 1014.3
20260508102038 42 0 0.0 0.0 0.00 0.01 0.00 94 1014.2
20260508101554 42 0 0.0 0.0 0.00 0.01 0.00 94 1014.2
20260508101038 42 0 0.0 0.0 0.00 0.01 0.00 94 1014.1
20260508100537 42 0 0.0 0.0 0.00 0.01 0.00 94 1014.0
20260508100048 42 0 0.0 0.0 0.00 0.01 0.00 94 1013.9
20260508095541 42 0 0.0 0.0 0.00 0.01 0.00 94 1013.8
20260508095038 43 0 0.0 0.0 0.00 0.01 0.00 94 1013.8
20260508094547 43 0 0.0 0.0 0.00 0.01 0.00 94 1013.8
20260508094038 43 0 0.0 0.0 0.00 0.01 0.00 94 1013.8
20260508093538 43 0 0.0 0.0 0.00 0.01 0.00 94 1013.7
20260508093046 43 0 0.0 0.0 0.00 0.01 0.00 94 1013.8
20260508092535 43 0 0.0 0.0 0.00 0.01 0.00 95 1013.8
20260508092034 44 0 0.0 0.0 0.00 0.01 0.00 94 1013.8
20260508091547 44 0 0.0 0.0 0.00 0.01 0.00 94 1013.8
20260508091034 44 0 0.0 0.0 0.00 0.01 0.00 94 1013.8
20260508090534 44 0 0.0 0.0 0.00 0.01 0.00 94 1013.8
20260508090059 44 0 0.0 0.0 0.00 0.01 0.00 94 1013.7
20260508085533 44 0 0.0 0.0 0.00 0.01 0.00 94 1013.6
20260508085034 44 0 0.0 0.0 0.00 0.01 0.00 94 1013.6
20260508084549 44 0 0.0 0.0 0.00 0.01 0.00 94 1013.5
20260508084034 45 0 0.0 0.0 0.00 0.01 0.00 94 1013.6
20260508083535 45 0 0.0 0.0 0.00 0.01 0.00 94 1013.5
20260508083049 45 0 0.0 0.0 0.00 0.01 0.00 94 1013.5
20260508082536 45 0 0.0 0.0 0.00 0.01 0.00 94 1013.4
20260508082035 45 0 0.0 0.0 0.00 0.01 0.00 94 1013.4
20260508081548 45 0 0.0 0.0 0.00 0.01 0.00 94 1013.4
20260508081034 45 0 0.0 0.0 0.00 0.01 0.00 94 1013.3
20260508080535 45 0 0.0 0.0 0.00 0.01 0.00 94 1013.3
20260508080050 46 0 0.0 0.0 0.00 0.01 0.00 94 1013.3
20260508075534 46 0 0.0 0.0 0.00 0.01 0.00 94 1013.3
20260508075033 46 0 0.0 0.0 0.00 0.01 0.00 94 1013.2
20260508074551 46 0 0.0 0.0 0.00 0.01 0.00 94 1013.2
20260508074036 46 0 0.0 0.0 0.00 0.01 0.00 94 1013.2
20260508073534 46 0 0.0 0.0 0.00 0.01 0.00 94 1013.2
20260508073047 46 0 0.0 0.0 0.00 0.01 0.00 94 1013.2
20260508072535 46 0 0.0 0.0 0.00 0.01 0.00 94 1013.1
20260508072034 46 0 0.0 0.0 0.00 0.01 0.00 94 1013.0
20260508071551 46 0 0.0 0.0 0.00 0.01 0.00 94 1013.0
20260508071034 46 0 0.0 0.0 0.00 0.01 0.00 94 1012.9
20260508070534 46 0 0.0 0.0 0.00 0.01 0.00 94 1012.9
20260508070054 47 0 0.0 0.0 0.00 0.01 0.00 94 1012.8
20260508065533 47 0 0.0 0.0 0.00 0.02 0.00 94 1012.8
20260508065035 47 0 0.0 0.0 0.00 0.02 0.00 94 1012.7
20260508064551 47 0 0.0 0.0 0.00 0.02 0.00 94 1012.5
20260508064034 47 0 0.0 0.0 0.00 0.02 0.00 94 1012.4
20260508063534 47 0 0.0 0.0 0.00 0.02 0.00 94 1012.4
20260508063102 47 0 0.0 0.0 0.00 0.02 0.00 94 1012.3
20260508062536 47 0 0.0 0.0 0.00 0.02 0.00 94 1012.2
20260508062034 46 0 0.0 0.0 0.00 0.02 0.00 94 1012.2
20260508061548 46 0 0.0 0.0 0.00 0.02 0.00 94 1012.1
20260508061037 46 0 0.0 0.0 0.00 0.02 0.00 94 1012.0
20260508060533 46 0 0.0 0.0 0.00 0.02 0.00 93 1012.0
20260508060049 46 0 0.0 0.0 0.00 0.02 0.00 93 1012.0
20260508055534 46 0 0.0 0.0 0.00 0.03 0.00 93 1011.9
20260508055034 46 0 0.0 0.0 0.00 0.03 0.00 93 1012.0
20260508054542 46 0 0.0 0.0 0.00 0.03 0.00 93 1012.0
20260508054033 47 0 0.0 0.0 0.00 0.03 0.00 92 1011.9
20260508053534 47 0 0.0 0.0 0.00 0.03 0.00 92 1011.9
20260508053055 47 0 0.0 0.0 0.00 0.03 0.00 92 1011.9
20260508052534 47 0 0.0 0.0 0.00 0.03 0.00 92 1011.9
20260508052034 47 0 0.0 0.0 0.00 0.03 0.00 92 1011.9
20260508051552 47 0 0.0 0.0 0.00 0.03 0.00 92 1011.8
20260508051040 47 0 0.0 0.0 0.00 0.03 0.00 92 1011.9
20260508050537 48 0 0.0 0.0 0.00 0.03 0.00 92 1011.9
20260508050047 48 0 0.0 0.0 0.00 0.03 0.00 92 1011.7
20260508045534 48 0 0.0 0.0 0.00 0.04 0.00 92 1011.8
20260508045034 48 0 0.0 0.0 0.00 0.04 0.00 92 1011.7
20260508044546 48 0 0.0 0.0 0.00 0.04 0.00 92 1011.7
20260508044034 48 0 0.0 0.0 0.00 0.04 0.00 91 1011.7
20260508043534 48 0 0.0 0.0 0.00 0.04 0.00 92 1011.6
20260508043057 48 0 0.0 0.0 0.00 0.04 0.00 91 1011.5
20260508042535 49 0 0.0 0.0 0.00 0.04 0.00 91 1011.5
20260508042036 49 0 0.0 0.0 0.00 0.04 0.00 91 1011.6
20260508041558 49 0 0.0 0.0 0.00 0.04 0.00 91 1011.5
20260508041037 49 0 0.0 0.0 0.00 0.04 0.00 91 1011.6
20260508040536 49 0 0.0 0.0 0.00 0.04 0.00 90 1011.5
20260508040051 49 0 0.0 0.0 0.00 0.04 0.00 90 1011.4
20260508035535 49 0 0.0 0.0 0.00 0.04 0.04 90 1011.3
20260508035034 50 0 0.0 0.0 0.00 0.04 0.04 89 1011.4
20260508034547 50 0 0.0 0.0 0.00 0.04 0.04 89 1011.3
20260508034037 50 0 0.0 0.0 0.00 0.04 0.04 89 1011.3
20260508033536 50 0 0.0 0.0 0.00 0.04 0.04 88 1011.3
20260508033048 50 0 0.0 0.0 0.00 0.04 0.04 88 1011.3
20260508032537 51 0 0.0 0.0 0.00 0.04 0.04 87 1011.3
20260508032039 51 0 0.0 0.0 0.00 0.04 0.04 87 1011.3
20260508031546 51 0 0.0 0.0 0.00 0.04 0.04 87 1011.3
20260508031035 51 0 0.0 0.0 0.00 0.04 0.04 86 1011.3
20260508030538 51 0 0.0 0.0 0.00 0.04 0.04 86 1011.2
20260508030052 52 0 0.0 0.0 0.00 0.04 0.04 85 1011.2
20260508025538 52 0 0.0 0.0 0.00 0.04 0.04 84 1011.2
20260508025039 52 0 0.0 0.0 0.00 0.04 0.04 85 1011.2
20260508024550 52 0 0.0 0.0 0.00 0.04 0.04 83 1011.1
20260508024038 52 0 0.0 0.0 0.00 0.04 0.04 83 1011.1
20260508023538 52 0 0.0 0.0 0.00 0.04 0.04 83 1011.1
20260508023048 53 0 0.0 0.0 0.00 0.04 0.04 82 1011.1
20260508022539 53 0 0.0 0.0 0.00 0.04 0.04 82 1011.2
20260508022038 53 0 0.0 0.0 0.00 0.04 0.04 82 1011.1
20260508021554 53 0 0.0 0.0 0.00 0.04 0.04 81 1011.1
20260508021037 53 0 0.0 0.0 0.00 0.04 0.04 81 1011.1
20260508020537 53 0 0.0 0.0 0.00 0.04 0.04 81 1011.1
20260508020049 53 0 0.0 0.0 0.00 0.04 0.04 80 1011.0
20260508015537 53 0 0.0 1.0 0.00 0.04 0.04 80 1011.0
20260508015038 53 0 0.0 3.0 0.00 0.04 0.04 79 1010.9
20260508014551 53 0 0.0 3.0 0.00 0.04 0.04 79 1010.8
20260508014038 53 0 0.0 0.0 0.00 0.04 0.04 79 1010.8
20260508013538 53 0 0.0 0.0 0.00 0.04 0.04 79 1010.8
20260508013057 53 0 0.0 0.0 0.00 0.04 0.04 79 1010.8
20260508012538 53 0 0.0 0.0 0.00 0.04 0.04 78 1010.7
20260508012039 53 0 0.0 0.0 0.00 0.04 0.04 78 1010.7
20260508011554 53 0 0.0 0.0 0.00 0.04 0.04 78 1010.6
20260508011035 53 0 0.0 0.0 0.00 0.04 0.04 78 1010.7
20260508010538 54 0 0.0 0.0 0.00 0.04 0.04 77 1010.7
20260508010048 54 0 0.0 0.0 0.00 0.04 0.04 78 1010.6
20260508005537 54 0 0.0 0.0 0.00 0.04 0.04 77 1010.5
20260508005041 54 0 0.0 0.0 0.00 0.04 0.04 77 1010.4
20260508004547 54 0 0.0 0.0 0.00 0.04 0.04 76 1010.4
20260508004040 54 0 0.0 0.0 0.00 0.04 0.04 76 1010.4
20260508003537 54 0 0.0 0.0 0.00 0.04 0.04 76 1010.4
20260508003051 55 0 0.0 0.0 0.00 0.04 0.04 75 1010.3
20260508002539 55 0 0.0 1.0 0.00 0.04 0.04 75 1010.3
20260508002037 55 0 0.0 3.0 0.00 0.04 0.04 75 1010.3
20260508001609 55 0 0.0 3.0 0.00 0.04 0.04 75 1010.3
20260508001041 56 0 0.0 3.0 0.00 0.04 0.04 74 1010.2
20260508000541 56 0 0.0 3.0 0.00 0.04 0.04 74 1010.2
20260508000053 56 0 0.0 4.0 0.00 0.04 0.04 74 1010.1
20260507235539 56 0 0.0 4.0 0.00 0.04 0.04 73 1010.1
20260507235038 56 225 1.0 5.0 0.00 0.04 0.04 72 1010.0
20260507234551 56 209 1.0 5.0 0.00 0.04 0.04 72 1009.9
20260507234058 57 161 1.0 5.0 0.00 0.04 0.04 72 1009.8
20260507233538 57 0 1.0 5.0 0.00 0.04 0.04 73 1009.7
20260507233047 57 221 1.0 4.0 0.00 0.04 0.04 72 1009.7
20260507232538 57 139 0.0 4.0 0.00 0.04 0.04 71 1009.6
20260507232038 57 148 1.0 4.0 0.00 0.04 0.04 72 1009.5
20260507231548 57 136 0.0 8.0 0.00 0.04 0.04 71 1009.3
20260507231037 57 0 1.0 8.0 0.00 0.04 0.04 72 1009.3
20260507230538 57 194 1.0 8.0 0.00 0.04 0.04 73 1009.3
20260507230049 57 146 1.0 5.0 0.00 0.04 0.04 73 1009.3
20260507225540 57 0 1.0 9.0 0.00 0.04 0.04 73 1009.2